Location: Clandonald
(53.5720°N, 110.7141°W)
Time: 03:03:46
(UTC+00:00)

ISS - Visible Passes

Search period start: 17 October 2019 00:00
Search period end: 27 October 2019 00:00
Orbit: 411 x 421 km, 51.6° (Epoch: 16 October)

Date Brightness Start Highest point End Pass type
(mag) Time Alt. Az. Time Alt. Az. Time Alt. Az.
23 Oct -0.3 13:24:16 10° SSE 13:24:51 10° SE 13:25:25 10° SE visible
25 Oct -1.1 13:21:29 10° SSW 13:24:00 20° SSE 13:26:31 10° E visible
26 Oct -0.9 12:33:45 10° S 12:35:37 14° SE 12:37:30 10° ESE visible
